[[{"header":{"parameterUnit":"m.s-1","parameterCategory":1,"la1":30.2991,"la2":30.254,"lo1":-89.0895,"lo2":-89.0444,"dy":0.0017,"dx":0.0017,"nx":28,"ny":28,"refTime":"2024-06-18T09:00:00:Z","depth":0,"parameterNumber":2,"parameterNumberName":"U-component_of_WINDS"},"data":[0,0,0,0,0,0,0,0,0,0,0,0,0,0,0,0,0,0,0,0,0,0,0,0,0,0,0,0,0,0,0,0,0,0,0,0,0,0,0,0,0,0,0,0,0,0,0,0,0,0,0,0,0,0,0,0,0,0,-9.2398,-9.2398,0,-9.2368,-9.2367,-9.2367,-9.2092,-9.2085,-9.2078,-9.2072,-9.2045,-9.2051,-9.2056,0,0,0,0,0,0,0,0,0,0,0,0,0,-9.2222,-9.2227,-9.2398,-9.2398,-9.2397,-9.2368,-9.2367,-9.2367,-9.2093,-9.2085,-9.2077,-9.2069,-9.2044,-9.205,-9.2057,0,0,0,0,0,0,0,0,0,0,0,0,0,-9.2256,-9.2228,-9.2398,-9.2257,-9.2244,-9.2368,-9.2367,-9.2367,-9.2095,-9.2085,-9.2074,-9.2065,-9.2041,-9.205,-9.2058,-9.2316,0,0,-9.2084,-9.2088,0,0,0,0,0,0,0,0,-9.2255,-9.2263,-9.2278,-9.2267,-9.2253,-9.2223,-9.2295,-9.235,-9.2098,-9.2152,-9.2072,-9.206,-9.2113,-9.2115,-9.2132,-9.2315,-9.2314,-9.2085,-9.209,-9.2094,-9.2096,0,0,0,0,0,0,0,-9.2253,-9.2263,-9.2386,-9.2279,-9.2263,-9.2196,-9.219,-9.2304,-9.2191,-9.2146,-9.2126,-9.2126,-9.2104,-9.2125,-9.2129,-9.2313,-9.2084,-9.2092,-9.2097,-9.2101,-9.2704,-9.2715,0,0,0,0,0,0,-9.2269,-9.2263,-9.2387,-9.2385,-9.2228,-9.2208,-9.22,-9.2243,-9.2188,-9.217,-9.2135,-9.2113,-9.2115,-9.212,-9.2127,-9.2424,-9.2093,-9.2101,-9.2106,-9.2694,-9.2707,-9.2719,0,0,0,0,0,0,-9.2267,-9.2283,-9.2388,-9.2318,-9.2326,-9.2222,-9.2272,-9.2248,-9.2267,-9.218,-9.2159,-9.2176,-9.2107,-9.2115,-9.227,-9.2419,-9.2105,-9.2113,-9.2681,-9.2698,-9.2713,-9.3021,0,0,0,0,0,0,-9.2263,-9.2284,-9.238,-9.2322,-9.2331,-9.2532,-9.2281,-9.2255,-9.2283,-9.2254,-9.2213,-9.2196,-9.21,-9.2259,-9.2279,-9.2425,-9.212,-9.2667,-9.2688,-9.2707,-9.2997,-9.3046,-9.3087,0,0,0,0,0,-9.2257,-9.2469,-9.2386,-9.2403,-9.2449,-9.2541,-9.2546,-9.2429,-9.2296,-9.2392,-9.2335,-9.2198,-9.2401,-9.2277,-9.2297,-9.2448,-9.2657,-9.2682,-9.2706,-9.2976,-9.3036,-9.3086,0,0,0,0,0,0,-9.2549,-9.2459,-9.2366,-9.2566,-9.2563,-9.2494,-9.2611,-9.2496,-9.2532,-9.2504,-9.2359,-9.2352,-9.2529,-9.2504,-9.2369,-9.2694,-9.2505,-9.2535,-9.2704,-9.2759,-9.2804,-9.2805,-9.2127,0,0,0,0,0,-9.2636,-9.2717,-9.2634,-9.2819,-9.2822,-9.2718,-9.2753,-9.2663,-9.2655,-9.2653,-9.2607,-9.2606,-9.2668,-9.2713,-9.2766,-9.2993,-9.2979,-9.3106,-9.3152,-9.3189,-9.3216,-9.3333,-9.3388,-9.2799,-9.2799,-9.2799,0,0,-9.2818,-9.2779,-9.2839,-9.2876,-9.2863,-9.295,-9.2719,-9.2821,-9.2884,-9.2669,-9.281,-9.2779,-9.2767,-9.2959,-9.3041,-9.2943,-9.3376,-9.3221,-9.3252,-9.3258,-9.3364,-9.3419,-9.3469,-9.2816,-9.2813,-9.281,0,0,-9.3192,-9.3172,-9.3321,-9.3313,-9.3295,-9.3224,-9.3261,-9.321,-9.3179,-9.332,-9.3159,-9.3234,-9.3345,-9.3343,-9.3357,-9.3731,-9.3605,-9.3753,-9.3988,-9.4104,-9.415,-9.419,-9.4322,-9.4371,-9.378,-9.3781,-9.3781,0,-9.342,-9.3543,-9.3413,-9.3525,-9.3546,-9.3354,-9.3504,-9.3503,-9.3506,-9.3525,-9.3416,-9.3551,-9.353,-9.3717,-9.3808,-9.3827,-9.3863,-9.3755,-9.4154,-9.4193,-9.4228,-9.4352,-9.4402,-9.3798,-9.3796,-9.3795,-9.3793,0,-9.3823,-9.3912,-9.4035,-9.4039,-9.4074,-9.4206,-9.4097,-9.4148,-9.4056,-9.3997,-9.4143,-9.4111,-9.4153,-9.4191,-9.4103,-9.4367,-9.4307,-9.4179,-9.3984,-9.4305,-9.4418,-9.4465,-9.3824,-9.3818,-9.3812,-9.3808,0,0,-9.4379,-9.4309,-9.4357,-9.4355,-9.4322,-9.4388,-9.4512,-9.4551,-9.4597,-9.4606,-9.4705,-9.4804,-9.4684,-9.47,-9.461,-9.4712,-9.5008,-9.457,-9.4568,-9.4651,-9.5294,-9.5389,-9.5446,-9.4925,-9.4934,-9.4941,-9.5295,0,-9.4737,-9.494,-9.4827,-9.5047,-9.5126,-9.4945,-9.5051,-9.5044,-9.4993,-9.5054,-9.4997,-9.5069,-9.4907,-9.4915,-9.5008,-9.4953,-9.5135,-9.4926,-9.5016,-9.5021,-9.5021,-9.5506,-9.5607,-9.5942,-9.5338,-9.5346,-9.5351,0,-9.5181,-9.5206,-9.5434,-9.5383,-9.5412,-9.5511,-9.5537,-9.5598,-9.5585,-9.5541,-9.5559,-9.5444,-9.5562,-9.5373,-9.5532,-9.5393,-9.5423,-9.5402,-9.5412,-9.5414,-9.5204,-9.5519,-9.6046,-9.6096,-9.542,-9.5415,-9.541,0,-9.5561,-9.5652,-9.5798,-9.5804,-9.575,-9.5823,-9.5804,-9.5781,-9.5812,-9.5837,-9.5855,-9.5894,-9.5916,-9.5949,-9.5848,-9.572,-9.6022,-9.5824,-9.5988,-9.5991,-9.6057,-9.6054,-9.6595,-9.6083,-9.6082,-9.6081,-9.608,0,-9.5971,-9.6116,-9.5968,-9.6058,-9.6216,-9.6085,-9.6246,-9.6208,-9.6189,-9.6269,-9.6117,-9.6196,-9.6059,-9.6125,-9.6048,-9.6191,-9.6203,-9.617,-9.6147,-9.6182,-9.6186,-9.6198,-9.6171,-9.6094,-9.6091,-9.6089,-9.6086,0,-9.642,-9.6327,-9.6474,-9.6411,-9.6398,-9.6518,-9.6463,-9.6545,-9.6484,-9.6587,-9.6604,-9.6509,-9.6579,-9.6482,-9.6542,-9.649,-9.6686,-9.663,-9.669,-9.6672,-9.6841,-9.6825,-9.7406,-9.7475,-9.6922,-9.6927,-9.6932,0,-9.6686,-9.6793,-9.6741,-9.6783,-9.6772,-9.6843,-9.6872,-9.6749,-9.6787,-9.678,-9.6863,-9.6919,-9.6957,-9.7077,-9.7014,-9.7059,-9.7,-9.7201,-9.7006,-9.7037,-9.7,-9.6994,-9.7003,-9.724,-9.7247,-9.7252,-9.7257,0,-9.7168,-9.7116,-9.7164,-9.7197,-9.7236,-9.7257,-9.7265,-9.7309,-9.7179,-9.723,-9.7297,-9.7327,-9.7387,-9.7445,-9.7474,-9.7455,-9.7336,-9.7319,-9.7358,-9.7394,-9.7423,-9.7407,-9.6795,-9.7305,-9.7301,-9.7297,-9.7294,-9.7292,-9.7532,-9.7618,-9.7594,-9.7652,-9.7646,-9.7657,-9.773,-9.7677,-9.7731,-9.7768,-9.7693,-9.778,-9.7765,-9.779,-9.7786,-9.7853,-9.7765,-9.7824,-9.7838,-9.7854,-9.7878,-9.7416,-9.7858,-9.7856,-9.7855,-9.7854,-9.7853,0,-9.8003,-9.7978,-9.8034,-9.8049,-9.8096,-9.7978,-9.7981,-9.8028,-9.8106,-9.8101,-9.8141,-9.8219,-9.8274,-9.8216,-9.826,-9.8325,-9.8271,-9.8341,-9.8333,-9.833,-9.7955,-9.7915,-9.8383,-9.8383,-9.8383,-9.8383,-9.8383,-9.8383,-9.8253,-9.8392,-9.8338,-9.8472,-9.8446,-9.8528,-9.854,-9.855,-9.8545,-9.8638,-9.8682,-9.8643,-9.8617,-9.8658,-9.8704,-9.8685,-9.8708,-9.8797,-9.8759,-9.8409,-9.8357,-9.8307,-9.8269,-9.8804,-9.8804,-9.9128,-9.9131,-9.9133]},{"header":{"parameterUnit":"m.s-1","parameterCategory":1,"la1":30.2991,"la2":30.254,"lo1":-89.0895,"lo2":-89.0444,"dy":0.0017,"dx":0.0017,"nx":28,"ny":28,"refTime":"2024-06-18T09:00:00:Z","depth":0,"parameterNumber":3,"parameterNumberName":"V-component_of_WINDS"},"data":[0,0,0,0,0,0,0,0,0,0,0,0,0,0,0,0,0,0,0,0,0,0,0,0,0,0,0,0,0,0,0,0,0,0,0,0,0,0,0,0,0,0,0,0,0,0,0,0,0,0,0,0,0,0,0,0,0,0,-1.5354,-1.5355,0,-1.5411,-1.5412,-1.5412,-1.5479,-1.548,-1.5482,-1.5482,-1.5537,-1.5538,-1.5538,0,0,0,0,0,0,0,0,0,0,0,0,0,-1.5299,-1.5299,-1.5354,-1.5355,-1.5356,-1.5411,-1.5412,-1.5413,-1.5479,-1.5481,-1.5482,-1.5483,-1.5537,-1.5537,-1.5538,0,0,0,0,0,0,0,0,0,0,0,0,0,-1.5336,-1.5299,-1.5354,-1.5396,-1.54,-1.5411,-1.5412,-1.5413,-1.5479,-1.5481,-1.5482,-1.5484,-1.5537,-1.5537,-1.5538,-1.5512,0,0,-1.554,-1.5541,0,0,0,0,0,0,0,0,-1.5333,-1.5338,-1.5389,-1.5393,-1.5398,-1.544,-1.5412,-1.5446,-1.5479,-1.5449,-1.5483,-1.5484,-1.5503,-1.5507,-1.5514,-1.5514,-1.5516,-1.554,-1.5541,-1.5541,-1.5541,0,0,0,0,0,0,0,-1.5331,-1.5335,-1.5377,-1.5389,-1.5395,-1.541,-1.5417,-1.5419,-1.5466,-1.5452,-1.5457,-1.5463,-1.5506,-1.5513,-1.5516,-1.5517,-1.554,-1.5541,-1.5542,-1.5542,-1.5495,-1.5493,0,0,0,0,0,0,-1.5323,-1.5333,-1.5375,-1.5378,-1.5369,-1.541,-1.5417,-1.5425,-1.5467,-1.5475,-1.5461,-1.5465,-1.5511,-1.5515,-1.5518,-1.5487,-1.5541,-1.5542,-1.5542,-1.5497,-1.5495,-1.5493,0,0,0,0,0,0,-1.5321,-1.5326,-1.5373,-1.5357,-1.5364,-1.5409,-1.5416,-1.5425,-1.5432,-1.5474,-1.5482,-1.546,-1.5512,-1.5517,-1.5512,-1.549,-1.5542,-1.5543,-1.5499,-1.5496,-1.5494,-1.5426,0,0,0,0,0,0,-1.5319,-1.5325,-1.5316,-1.5356,-1.5365,-1.5367,-1.5415,-1.5425,-1.5434,-1.544,-1.5475,-1.5482,-1.5514,-1.5511,-1.5513,-1.5492,-1.5543,-1.5501,-1.5498,-1.5495,-1.543,-1.5421,-1.5414,0,0,0,0,0,-1.5317,-1.5295,-1.5316,-1.532,-1.5355,-1.5366,-1.537,-1.5408,-1.5432,-1.5422,-1.5449,-1.5481,-1.5492,-1.551,-1.5513,-1.5491,-1.5502,-1.5498,-1.5495,-1.5434,-1.5423,-1.5414,0,0,0,0,0,0,-1.525,-1.5301,-1.5324,-1.5315,-1.5335,-1.5377,-1.5367,-1.5396,-1.5409,-1.5414,-1.546,-1.5467,-1.5456,-1.5474,-1.5492,-1.5466,-1.5502,-1.5499,-1.5455,-1.5445,-1.5437,-1.5431,-1.5544,0,0,0,0,0,-1.5235,-1.524,-1.5284,-1.5271,-1.528,-1.5321,-1.5327,-1.5355,-1.5377,-1.5386,-1.5412,-1.5432,-1.544,-1.5444,-1.5453,-1.5434,-1.5441,-1.5421,-1.5412,-1.5406,-1.5401,-1.5389,-1.5379,-1.548,-1.548,-1.5481,0,0,-1.5202,-1.523,-1.5231,-1.5258,-1.5277,-1.528,-1.5328,-1.533,-1.5331,-1.5386,-1.5382,-1.5402,-1.5427,-1.5414,-1.541,-1.5428,-1.5375,-1.5401,-1.5395,-1.5394,-1.5384,-1.5374,-1.5366,-1.5478,-1.5478,-1.5479,0,0,-1.5143,-1.5167,-1.5157,-1.5175,-1.5204,-1.5231,-1.5229,-1.5265,-1.5281,-1.5278,-1.5318,-1.5321,-1.5334,-1.5349,-1.5358,-1.5303,-1.5332,-1.5305,-1.5261,-1.5248,-1.524,-1.5233,-1.5211,-1.5202,-1.5301,-1.5301,-1.5301,0,-1.5098,-1.5105,-1.5148,-1.5146,-1.5156,-1.5206,-1.5195,-1.5211,-1.524,-1.5245,-1.5266,-1.5282,-1.5302,-1.5292,-1.5278,-1.5285,-1.5282,-1.53,-1.5239,-1.5232,-1.5226,-1.5205,-1.5196,-1.5297,-1.5298,-1.5298,-1.5299,0,-1.5047,-1.5051,-1.504,-1.5067,-1.5076,-1.507,-1.511,-1.5113,-1.5139,-1.5163,-1.5159,-1.5185,-1.5199,-1.52,-1.5226,-1.5192,-1.5202,-1.5231,-1.5267,-1.5212,-1.5192,-1.5185,-1.5292,-1.5293,-1.5295,-1.5295,0,0,-1.4947,-1.4998,-1.4993,-1.5004,-1.5039,-1.5042,-1.5037,-1.5052,-1.5052,-1.5071,-1.5066,-1.5075,-1.5101,-1.5111,-1.5139,-1.5129,-1.5079,-1.5158,-1.5159,-1.5139,-1.504,-1.5016,-1.5006,-1.51,-1.5098,-1.5097,-1.5037,0,-1.4892,-1.4887,-1.4925,-1.4909,-1.4911,-1.4959,-1.4954,-1.4973,-1.4996,-1.5,-1.5024,-1.5029,-1.5064,-1.507,-1.5062,-1.5087,-1.5059,-1.5092,-1.5092,-1.5092,-1.5082,-1.4997,-1.4972,-1.4913,-1.503,-1.5029,-1.5028,0,-1.4827,-1.4842,-1.4826,-1.4859,-1.4861,-1.4857,-1.4872,-1.4876,-1.4898,-1.4915,-1.4926,-1.4958,-1.4953,-1.4989,-1.4982,-1.5003,-1.5006,-1.5017,-1.5016,-1.5015,-1.5054,-1.499,-1.4896,-1.4886,-1.5017,-1.5018,-1.5018,0,-1.4751,-1.4767,-1.4759,-1.4768,-1.4808,-1.4802,-1.4818,-1.4843,-1.4848,-1.4861,-1.4865,-1.4877,-1.4883,-1.4891,-1.4924,-1.4948,-1.4911,-1.4951,-1.4922,-1.4921,-1.491,-1.4909,-1.4812,-1.4917,-1.4917,-1.4917,-1.4917,0,-1.4684,-1.4671,-1.4725,-1.472,-1.4706,-1.4749,-1.4734,-1.4755,-1.4775,-1.4773,-1.4816,-1.4812,-1.4859,-1.486,-1.4886,-1.4873,-1.4877,-1.4888,-1.4895,-1.4882,-1.488,-1.4882,-1.4886,-1.4915,-1.4915,-1.4916,-1.4916,0,-1.4596,-1.4632,-1.4625,-1.4663,-1.4672,-1.466,-1.4692,-1.4687,-1.4712,-1.4709,-1.471,-1.4749,-1.4752,-1.4787,-1.4799,-1.4816,-1.4792,-1.4808,-1.4784,-1.4788,-1.4756,-1.4757,-1.4653,-1.464,-1.4757,-1.4755,-1.4755,0,-1.4549,-1.454,-1.4577,-1.4578,-1.4592,-1.4595,-1.4601,-1.4643,-1.4647,-1.467,-1.4662,-1.4669,-1.4677,-1.4679,-1.4707,-1.4716,-1.473,-1.4693,-1.4731,-1.4718,-1.4725,-1.4724,-1.4721,-1.4684,-1.4682,-1.4681,-1.468,0,-1.446,-1.4478,-1.4486,-1.4498,-1.4504,-1.4516,-1.4531,-1.4529,-1.4575,-1.4577,-1.4581,-1.4587,-1.4598,-1.4603,-1.4616,-1.4631,-1.4661,-1.4668,-1.4661,-1.4647,-1.4632,-1.4636,-1.4758,-1.467,-1.4671,-1.4671,-1.4672,-1.4672,-1.4389,-1.4382,-1.4406,-1.4412,-1.4428,-1.444,-1.4436,-1.4461,-1.4466,-1.4478,-1.4503,-1.4502,-1.4522,-1.4543,-1.4555,-1.4554,-1.4573,-1.4564,-1.4561,-1.4557,-1.4549,-1.4635,-1.4557,-1.4557,-1.4558,-1.4558,-1.4558,0,-1.43,-1.4317,-1.4323,-1.4341,-1.4345,-1.4376,-1.4393,-1.4393,-1.4393,-1.441,-1.4416,-1.442,-1.4425,-1.4453,-1.4461,-1.4454,-1.4468,-1.4454,-1.4453,-1.4455,-1.4533,-1.4537,-1.4443,-1.4443,-1.4443,-1.4443,-1.4443,-1.4443,-1.4253,-1.4242,-1.4263,-1.4259,-1.4277,-1.4277,-1.4284,-1.4294,-1.4308,-1.431,-1.4314,-1.4333,-1.4354,-1.4363,-1.4368,-1.4376,-1.4375,-1.4356,-1.4368,-1.4439,-1.445,-1.4461,-1.4464,-1.4356,-1.4356,-1.429,-1.4289,-1.4289]}]]